This demonstration page uses our WeatherBlox Daily Observations layout. Learn more.

Left ArrowRight Arrow

30.00354, -91.81873

Hourly Observations for August 22, 2022

Temp ( °F °C ) Dew Point ( °F °C ) Humidity (%) Winds ( mph kmh ) Pressure ( in mb ) Visibility ( mi km ) Precip ( " mm )
12:53 am 00:53 Clear 77 25 73 22.8 88 88 ESE 6 9 30.00 1016 10 16 0.00 0.00
1:53 am 01:53 Clear 76 24.4 73 22.8 91 91 ESE 5 7 29.99 1016 10 16 0.00 0.00
2:53 am 02:53 Mostly Clear 76 24.4 73 22.8 91 91 Calm 29.98 1015 10 16 0.00 0.00
3:53 am 03:53 Clear 76 24.4 73 22.8 91 91 Calm 29.98 1015 10 16 0.00 0.00
4:53 am 04:53 Clear 76 24.4 74 23.3 94 94 ESE 3 6 29.97 1015 10 16 0.00 0.00
5:53 am 05:53 Clear 76 24.4 74 23.3 94 94 SE 6 9 29.97 1015 9 14 0.00 0.00
6:53 am 06:53 Sunny 76 24.4 74 23.3 94 94 E 3 6 29.98 1015 8 13 0.00 0.00
7:53 am 07:53 Mostly Sunny 79 26.1 76 24.4 90 90 SE 3 6 29.99 1016 8 13 0.00 0.00
8:53 am 08:53 Mostly Sunny 84 28.9 77 25 80 80 SE 5 7 29.98 1015 10 16 0.00 0.00
9:53 am 09:53 Mostly Cloudy 87 30.6 76 24.4 70 70 S 12 19 29.98 1015 10 16 0.00 0.00
10:03 am 10:03 Mostly Cloudy with Nearby Thunderstorms 87 30.6 76 24.4 70 70 S 9 15 29.98 1015 10 16 0.00 0.00
10:53 am 10:53 Partly Cloudy with Nearby Thunderstorms 86 30 75 23.9 70 70 SSW 8 13 29.99 1016 10 16 0.00 0.00
11:48 am 11:48 Mostly Cloudy with Heavy Rain 81 27 75 24 84 84 VRB 7 11 30.00 1016 2 3 0.08 2.03
11:53 am 11:53 Mostly Cloudy with Rain 79 26.1 74 23.3 85 85 SW 12 19 30.00 1016 2 2 0.09 2.29
11:57 am 11:57 Mostly Cloudy with Light Rain 79 26.1 73 22.8 82 82 WSW 6 9 30.00 1016 4 6 0.01 0.13
12:10 pm 12:10 Mostly Cloudy with Nearby Thunderstorms 79 26.1 75 23.9 88 88 WNW 7 11 30.01 1016 7 11 0.01 0.25
12:32 pm 12:32 Mostly Cloudy with Rain 78 25.6 75 23.9 90 90 WNW 5 7 30.00 1016 5 8 0.05 1.27
12:53 pm 12:53 Partly Cloudy with Light Rain 78 25.6 75 23.9 90 90 NW 5 7 29.98 1015 8 13 0.07 1.78
1:53 pm 13:53 Mostly Sunny 80 26.7 76 24.4 87 87 E 3 6 29.96 1015 10 16 0.02 0.51
2:53 pm 14:53 Partly Cloudy with Light Rain 81 27.2 74 23.3 79 79 SW 9 15 29.94 1014 6 10 0.03 0.76
3:53 pm 15:53 Mostly Sunny 83 28.3 75 23.9 77 77 S 5 7 29.93 1014 10 16 0.01 0.13
4:53 pm 16:53 Sunny 84 28.9 76 24.4 77 77 SE 5 7 29.92 1013 10 16 0.00 0.00
5:53 pm 17:53 Sunny 84 28.9 77 25 80 80 ESE 5 7 29.91 1013 10 16 0.00 0.00
6:53 pm 18:53 Sunny 82 27.8 77 25 85 85 E 6 9 29.91 1013 10 16 0.00 0.00
7:53 pm 19:53 Mostly Clear 81 27.2 76 24.4 85 85 E 7 11 29.92 1013 10 16 0.00 0.00
8:53 pm 20:53 Mostly Clear 80 26.7 76 24.4 87 87 ESE 9 15 29.92 1013 10 16 0.00 0.00
9:53 pm 21:53 Clear 79 26.1 76 24.4 90 90 SE 8 13 29.93 1013 10 16 0.00 0.00
10:53 pm 22:53 Clear 78 25.6 76 24.4 93 93 SE 7 11 29.92 1013 10 16 0.00 0.00
11:53 pm 23:53 Clear 78 25.6 75 23.9 90 90 ESE 5 7 29.93 1014 10 16 0.00 0.00

Powered by AerisWeather